User: anonymous
Location: Ostrava
(49.8330°N, 18.2830°E)
Time: 08:14:43
(UTC+02:00)
Language:

Cosmos 1400 Rocket - Orbit

View from above orbital plane
View from above orbital plane
View from above satellite
View from above satellite

Ground track
Ground track

The orbit data is extracted from the following two-line orbital elements,

1 13403U 82079B   14208.76376370  .00000958  00000-0  67400-4 0  6216
2 13403 081.1696 036.3293 0037092 149.5884 210.7500 15.03591925737912
Epoch (UTC): 27 July 2014 18:19:49
Eccentricity: 0.0037092
inclination: 81.1696°
perigee height: 530 km
apogee height: 581 km
right ascension of ascending node: 36.3293°
argument of perigee: 149.5884°
revolutions per day: 15.03591925
mean anomaly at epoch: 210.7500°
orbit number at epoch: 73791

The dashed part of the orbit path shows where the satellite is in the earth's shadow,  

DLR